Willimantic, CT

3:11 AM EST on December 16, 2019 (GMT -0500)
Windham

Weather History for KIJD - August, 2019

Change the Weather History Date:

Saturday, August 17, 2019

  Actual Average Record
Temperature  
Mean Temperature 74 °F -  
Max Temperature 82 °F 81 °F 94 °F (1970)
Min Temperature 66 °F 58 °F 42 °F (1957)
Cooling Degree Days 8    
Growing Degree Days 24 (Base 50)    
Moisture  
Dew Point 69 °F    
Average Humidity 88    
Maximum Humidity 100    
Minimum Humidity 67    
Precipitation  
Precipitation 0.59 in - - ()
Sea Level Pressure  
Sea Level Pressure 30.04 in    
Wind  
Wind Speed 3 mph (SSE)    
Max Wind Speed 10 mph    
Max Gust Speed -    
Visibility 8 miles    
Events Rain    
Averages and records for this station are not official NWS values.
T = Trace of Precipitation, MM = Missing Value Source: NWS Daily Summary

Daily Weather History Graph

Daily Weather History Graph

Search for Another Location

Airport or City:

Astronomy

Aug. 17, 2019 Rise Set
Actual Time 5:58 AM EDT 7:46 PM EDT
Civil Twilight 5:29 AM EDT 8:15 PM EDT
Nautical Twilight 4:52 AM EDT 8:51 PM EDT
Astronomical Twilight 4:13 AM EDT 9:30 PM EDT
Moon 9:11 PM EDT (8/17) 7:45 AM EDT (8/17)
Length of Visible Light 14h 46m
Length of Day
13h 47m
Waning Gibbous, 96% of the Moon is Illuminated
Aug 17
Waning Gibbous
Aug 23
Last Quarter
Aug 30
New
Sep 5
First Quarter
Sep 14
Full

Hourly Weather History & Observations

Time (EDT) Temp. Heat Index Dew Point Humidity Pressure Visibility Wind Dir Wind Speed Gust Speed Precip Events Conditions
12:16 AM 66.9 °F - 64.9 °F 93% 30.09 in 10.0 mi South 3.5 mph - N/A   Overcast
12:52 AM 66.9 °F - 64.9 °F 93% 30.08 in 9.0 mi Calm Calm - N/A   Overcast
1:26 AM 66.9 °F - 66.0 °F 97% 30.08 in 7.0 mi SSE 6.9 mph - N/A   Overcast
1:52 AM 66.9 °F - 66.0 °F 97% 30.08 in 7.0 mi South 3.5 mph - N/A   Overcast
2:52 AM 68.0 °F - 66.0 °F 93% 30.07 in 7.0 mi Calm Calm - N/A   Overcast
3:16 AM 68.0 °F - 66.9 °F 96% 30.08 in 4.0 mi Calm Calm - N/A   Overcast
3:52 AM 66.9 °F - 66.9 °F 100% 30.07 in 4.0 mi Calm Calm - N/A   Overcast
4:35 AM 66.9 °F - 66.9 °F 100% 30.07 in 2.0 mi Calm Calm - N/A   Overcast
4:44 AM 68.0 °F - 66.9 °F 96% 30.07 in 1.8 mi Calm Calm - N/A   Overcast
4:52 AM 68.0 °F - 66.9 °F 96% 30.07 in 1.5 mi Calm Calm - N/A   Overcast
5:06 AM 66.9 °F - 66.9 °F 100% 30.07 in 2.0 mi East 3.5 mph - N/A   Overcast
5:28 AM 66.9 °F - 66.9 °F 100% 30.07 in 4.0 mi ENE 4.6 mph - N/A   Overcast
5:52 AM 68.0 °F - 66.9 °F 96% 30.06 in 10.0 mi Calm Calm - N/A   Overcast
6:17 AM 68.0 °F - 66.9 °F 96% 30.07 in 10.0 mi NNE 3.5 mph - N/A   Overcast
6:52 AM 68.0 °F - 66.9 °F 96% 30.07 in 10.0 mi NE 4.6 mph - N/A   Overcast
7:10 AM 68.0 °F - 66.9 °F 96% 30.07 in 10.0 mi North - - N/A   Overcast
7:36 AM 69.1 °F - 66.9 °F 93% 30.07 in 10.0 mi ENE 4.6 mph - N/A   Overcast
7:52 AM 69.1 °F - 66.9 °F 93% 30.06 in 10.0 mi Variable 3.5 mph - N/A   Overcast
8:52 AM 70.0 °F - 68.0 °F 93% 30.06 in 10.0 mi Calm Calm - N/A   Overcast
9:52 AM 72.0 °F - 68.0 °F 87% 30.07 in 10.0 mi Calm Calm - N/A   Overcast
10:15 AM 73.0 °F - 68.0 °F 84% 30.07 in 10.0 mi South 3.5 mph - N/A   Overcast
10:52 AM 75.0 °F - 69.1 °F 82% 30.06 in 10.0 mi ENE 3.5 mph - N/A   Overcast
11:37 AM 75.0 °F - 69.1 °F 82% 30.07 in 10.0 mi Calm Calm - N/A   Overcast
11:52 AM 75.9 °F - 69.1 °F 79% 30.06 in 10.0 mi South 4.6 mph - 0.00 in   Overcast
12:13 PM 75.0 °F - 71.1 °F 87% 30.07 in 7.0 mi SSE 4.6 mph - 0.00 in Rain Light Rain
12:36 PM 73.9 °F - 71.1 °F 91% 30.06 in 2.5 mi South 8.1 mph - 0.05 in Rain Light Rain
12:40 PM 73.0 °F - 71.1 °F 93% 30.06 in 0.8 mi SSE 4.6 mph - 0.19 in Rain Heavy Rain
12:52 PM 73.0 °F - 71.1 °F 93% 30.06 in 3.0 mi East 3.5 mph - 0.29 in Rain Light Rain
1:05 PM 75.9 °F - 72.0 °F 87% 30.06 in 10.0 mi SSE 4.6 mph - 0.00 in   Overcast
1:37 PM 79.0 °F - 72.0 °F 79% 30.05 in 10.0 mi Variable 4.6 mph - 0.00 in   Mostly Cloudy
1:45 PM 78.1 °F - 72.0 °F 81% 30.06 in 10.0 mi SSE 5.8 mph - 0.00 in   Mostly Cloudy
1:52 PM 78.1 °F - 72.0 °F 81% 30.05 in 10.0 mi South 3.5 mph - 0.00 in   Overcast
2:24 PM 80.1 °F 83.8 °F 72.0 °F 76% 30.05 in 10.0 mi SSW 6.9 mph - N/A   Mostly Cloudy
2:52 PM 78.1 °F - 72.0 °F 81% 30.04 in 10.0 mi SE 6.9 mph - N/A   Overcast
3:07 PM 79.0 °F - 72.0 °F 79% 30.04 in 10.0 mi SSE 5.8 mph - N/A   Mostly Cloudy
3:52 PM 81.0 °F 85.2 °F 72.0 °F 74% 30.01 in 10.0 mi Variable 4.6 mph - 0.00 in   Scattered Clouds
4:10 PM 81.0 °F 84.9 °F 71.1 °F 72% 30.01 in 10.0 mi South 9.2 mph - N/A   Mostly Cloudy
4:28 PM 81.0 °F 84.9 °F 71.1 °F 72% 30.00 in 10.0 mi South 9.2 mph - N/A   Mostly Cloudy
4:52 PM 81.0 °F 84.1 °F 69.1 °F 67% 29.99 in 10.0 mi SSE 5.8 mph - N/A   Clear
5:52 PM 80.1 °F 83.2 °F 70.0 °F 71% 29.97 in 10.0 mi South 10.4 mph - N/A   Scattered Clouds
6:32 PM 79.0 °F - 71.1 °F 77% 29.98 in 10.0 mi SSE 6.9 mph - N/A   Mostly Cloudy
6:52 PM 78.1 °F - 71.1 °F 79% 29.99 in 10.0 mi SSW 6.9 mph - N/A   Mostly Cloudy
7:08 PM 78.1 °F - 71.1 °F 79% 29.99 in 10.0 mi South 6.9 mph - N/A   Overcast
7:52 PM 77.0 °F - 72.0 °F 84% 29.99 in 10.0 mi Calm Calm - N/A   Mostly Cloudy
8:11 PM 75.9 °F - 72.0 °F 87% 30.00 in 10.0 mi SE 6.9 mph - N/A   Mostly Cloudy
8:45 PM 75.0 °F - 72.0 °F 90% 30.01 in 10.0 mi South 5.8 mph - N/A   Overcast
8:52 PM 75.0 °F - 72.0 °F 90% 30.00 in 10.0 mi South 6.9 mph - N/A   Overcast
9:52 PM 73.9 °F - 72.0 °F 93% 30.00 in 10.0 mi Variable 3.5 mph - N/A   Overcast
10:52 PM 73.9 °F - 72.0 °F 93% 30.02 in 4.0 mi North 3.5 mph - 0.00 in Rain Light Rain
11:05 PM 72.0 °F - 70.0 °F 93% 30.04 in 1.8 mi NNW 5.8 mph - 0.12 in Rain Heavy Rain
11:17 PM 71.1 °F - 69.1 °F 93% 30.02 in 2.0 mi SE 3.5 mph - 0.27 in Rain Heavy Rain
11:21 PM 71.1 °F - 69.1 °F 93% 30.02 in 3.0 mi SE 4.6 mph - 0.29 in Rain Heavy Rain
11:52 PM 71.1 °F - 70.0 °F 96% 30.02 in 10.0 mi WSW 4.6 mph - 0.30 in   Overcast